Simultaneous Nadir Overpasses (SNOs) Predictions

Prediction of SNOs between GOES-15 and NPP Satellite Orbit:

Table of predicted SNOs for the next 14.0 days since TLE Epoch: 2/26/2016
Index Date Time (GOES-15) GOES-15 Lat,Lon NPP Lat,Lon Distance(km) Time Diff (sec)
1 02/27/2016 22:31:33 0.03,-135.15 -0.16,-135.91 87.23 80
2 02/28/2016 22:10:08 0.03,-135.12 0.84,-131.37 426.91 80
3 03/01/2016 10:34:34 -0.02,-135.11 0.33,-136.64 174.27 80
4 03/02/2016 10:13:09 -0.03,-135.09 -0.67,-132.10 339.41 80
5 03/03/2016 22:37:44 0.02,-135.01 -0.52,-137.40 272.61 80
6 03/04/2016 22:16:18 0.02,-134.98 0.49,-132.87 240.63 80
7 03/06/2016 10:40:45 -0.01,-134.96 0.69,-138.14 361.91 80
8 03/07/2016 10:19:19 -0.01,-134.93 -0.32,-133.60 150.92 80
9 03/08/2016 22:43:55 0.01,-134.84 -0.87,-138.91 462.30 80
10 03/09/2016 22:22:28 0.01,-134.81 0.08,-134.36 50.25 80




NCC Satellite Simultaneous Nadir Overpasses (SNOs) Prediction Service
